Regional Weather Roundup
Issued by NWS

Home | Current Version | Previous Version | Graphics & Text | Print | Product List | Glossary On
Versions: 1 2 3 4 5 6 7 8 9 10 11 12 13 14 15 16 17 18 19 20 21 22 23 24 25 26 27 28 29 30 31 32 33 34 35 36 37 38 39 40 41 42 43 44 45 46 47 48 49 50
000
ASUS43 KMKX 040300
RWRWI

WISCONSIN REGIONAL WEATHER ROUNDUP
NATIONAL WEATHER SERVICE MILWAUKEE/SULLIVAN WI
1000 PM CDT SUN MAY 03 2015

NOTE: "FAIR" INDICATES FEW OR NO CLOUDS BELOW 12,000 FEET WITH NO
SIGNIFICANT WEATHER AND/OR OBSTRUCTIONS TO VISIBILITY.

WIZ001-002-006>008-014>016-023>028-040400-
NORTHWEST WISCONSIN

CITY           SKY/WX    TMP DP  RH WIND       PRES   REMARKS
SUPERIOR ARPT  CLEAR     48  44  85 S6        29.89R
ASHLAND        MOCLDY    51  49  92 SW5       29.88R
HAYWARD        MOCLDY    55  47  74 CALM      29.88R
SIREN          PTCLDY    53  44  71 N5        29.89R
CUMBERLAND     MOCLDY    59  41  51 NE5       29.89F
RICE LAKE      MOCLDY    58  49  71 CALM      29.90R
CHETEK         MOCLDY    56  53  90 CALM      29.89R
LADYSMITH      CLOUDY    56  52  85 NE7       29.90R
EAU CLAIRE     NOT AVBL
MENOMONIE      CLOUDY    60  55  84 NE3       29.88R
NEW RICHMOND   CLOUDY    58  46  65 E5        29.89S
OSCEOLA        CLOUDY    61  46  57 E5        29.90F
$$

WIZ003>005-009-010-017-018-040400-
NORTH CENTRAL WISCONSIN

CITY           SKY/WX    TMP DP  RH WIND       PRES   REMARKS
MANITOWISH WTR CLOUDY    56  46  70 CALM      29.89F
ARBOR VITAE    LGT RAIN  56  53  87 CALM      29.91F
WOODRUFF       LGT RAIN  56  53  87 CALM      29.91F
RHINELANDER    LGT RAIN  56  48  74 N7        29.92R
EAGLE RIVER    RAIN      57  48  72 NW3       29.92R
LAND O LAKES   LGT RAIN  56  47  71 W5        29.92R
PHILLIPS       LGT RAIN  55  50  83 CALM      29.89F
TOMAHAWK       LGT RAIN  57  54  89 CALM      29.93R
MEDFORD        HVY RAIN  57  54  89 NE10      29.91R
MERRILL        LGT RAIN  59  57  92 N10G17    29.91R
$$

WIZ029-030-035-036-043>047-040400-
CENTRAL WISCONSIN

CITY           SKY/WX    TMP DP  RH WIND       PRES   REMARKS
WAUSAU         TSTM      63  54  72 VRB6      29.92R
MOSINEE        TSTM      64  54  68 W13G23    29.96R
MARSHFIELD     HVY RAIN  59 N/A N/A N16       29.92S
STEVENS POINT  CLOUDY    67  53  59 W10       29.88R
WAUPACA        CLOUDY    68  55  62 S6        29.85R
WAUTOMA        NOT AVBL
WISC RAPIDS    HVY RAIN  60  56  86 N15G26    29.92R
CAMP DOUGLAS   CLOUDY    63  61  94 NW16G32   29.94R
$$

WIZ011>013-019>022-031-037>040-048>050-040400-
NORTHEAST WISCONSIN

CITY           SKY/WX    TMP DP  RH WIND       PRES   REMARKS
ANTIGO         LGT RAIN  58  55  90 NE8       29.90R
SHAWANO        CLOUDY    71  54  54 SW5       29.85R
OCONTO         CLOUDY    69  54  58 SW8       29.84R
STURGEON BAY   MOCLDY    68  52  56 SW12      29.88R
GREEN BAY      CLOUDY    67  54  63 S9        29.87R
MANITOWOC      NOT AVBL
APPLETON       PTCLDY    64  52  63 SW9       29.87R
CLINTONVILLE   CLOUDY    68  52  56 S9        29.84R
OSHKOSH        CLOUDY    65  53  65 SW10      29.87R
$$

WIZ032>034-041-042-053>061-040400-
SOUTHWEST WISCONSIN

CITY           SKY/WX    TMP DP  RH WIND       PRES   REMARKS
LA CROSSE      TSTM      62  58  86 N10       29.87S FOG
SPARTA         TSTM      62  56  81 NW7       29.94R
VIROQUA        CLOUDY    67  51  57 N16G29    29.88R
BOSCOBEL       CLOUDY    69  59  70 CALM      29.86R
PRAIRIE DU CHI CLOUDY    69  58  66 SE3       29.84R
PLATTEVILLE    CLOUDY    64  60  86 SE7       29.88R
$$

WIZ056-057-062-063-064-067-068-040400-
SOUTH CENTRAL WISCONSIN

CITY           SKY/WX    TMP DP  RH WIND       PRES   REMARKS
REEDSBURG      CLOUDY    66  57  74 S5        29.87R
BARABOO/DELLS  NOT AVBL
LONE ROCK      NOT AVBL
MINERAL POINT  MOCLDY    63  59  88 SE9       29.88R
MADISON        CLOUDY    64  55  72 S8        29.88R
MIDDLETON      MOCLDY    65  54  68 S6        29.89R
WATERTOWN      MOCLDY    62  56  79 S6        29.88R
MONROE         PTCLDY    61  55  82 S9        29.89R
JANESVILLE     PTCLDY    63  54  72 S7        29.89R
$$

WIZ051-052-058>065-066-070>072-040400-
SOUTHEAST WISCONSIN

CITY           SKY/WX    TMP DP  RH WIND       PRES   REMARKS
MILWAUKEE      PTCLDY    65  53  65 S15       29.89R
WAUKESHA       CLEAR     61  54  77 S9        29.91R
MILWAUKEE/TIMM CLEAR     64  52  63 S13G20    29.89R
RACINE         PTCLDY    64  54  69 S12       29.92R
BURLINGTON     CLEAR     59  55  85 S5        29.91R
KENOSHA        CLEAR     62  57  83 S10       29.91R
FOND DU LAC    MOCLDY    64  52  64 SW9       29.88R
SHEBOYGAN      PTCLDY    62  52  69 SW9       29.88R
WEST BEND      PTCLDY    63  52  67 S6        29.88R
JUNEAU         MOCLDY    63  54  72 S10       29.90R
$$

LSZ147-162-040400-
LAKE SUPERIOR

STATION/POSITION TIME  TEMP    WIND        PRES    WAVE
                       AIR SEA DIR/SP/G            HT/PER
                 (UTC) (F)     (DEG/KT/KT) (MB)    (FT/S)
W MID LAKE BUOY  0150   45 35  300/  6/  8 1010.7R   1/ 3
DEVILS ISLAND    0200   52     260/ 11/ 12 1011.1R
PORT WING        0200   53     120/  1/  3 1011.2
SAXON HARBOR     0200   54      CALM  /  5 1010.2F
$$

LMZ867-665-643>646-040400-
LAKE MICHIGAN

STATION/POSITION TIME  TEMP    WIND        PRES    WAVE
                       AIR SEA DIR/SP/G            HT/PER
                 (UTC) (F)     (DEG/KT/KT) (MB)    (FT/S)
CHAMBERS ISLAND  0200   64     180/  8/ 16 1009.5R
NORTHPORT PIER   0200   48     140/  9/ 11 1009.5R
KEWAUNEE LAKESHO 0200   52     180/  9/ 11 1010.0R
SHEBOYGAN LAKESH 0200   58     190/ 16/ 17 1011.4R
PORT WASHINGTON  0240   52     180/  6/  7 1012.2R
ATWATER BUOY     0200   55     160/ 10/ 12 1012.7F
MILWAUKEE LAKESH 0200   65     200/ 15/ 19   N/A
KENOSHA   LAKESH 0200   57     170/ 17/ 20 1011.9F
$$

TC  - TEMPERATURE IN CELSIUS
VSB - VISIBILITY IN STATUTE MILES
WCI - WIND CHILL INDEX
HX  - HEAT INDEX




USA.gov is the U.S. government's official web portal to all federal, state and local government web resources and services.